{"data":{"norad_id":51641,"intl_designator":"2022-012V","name":"ONEWEB-0448","alt_names":[],"object_type":"PAYLOAD","status":"ACTIVE","operator":null,"country":"UK","launch_date":"2022-02-10","launch_site_code":"FRGUI","launch_vehicle":null,"mission":null,"orbit_class":"UNKNOWN","rcs_meters":null,"size_class":null,"mass_kg":null,"dimensions":null,"purposes":["comms"],"wikipedia_slug":null,"has_3d_model":false,"image_url":null,"decayed_at":null,"tle_current":{"epoch":"2026-09-20T02:07:36.672096Z","epoch_age_seconds":62655,"freshness":"FRESH","line1":"1 51641U 22012V   26263.08861889  .00000524  00000+0  14662-2 0  9992","line2":"2 51641  87.8895  17.3846 0001731 104.9890 255.1429 13.10370420221729","mean_motion":13.1037042,"eccentricity":0.0001731,"inclination_deg":87.8895,"raan_deg":17.3846,"arg_perigee_deg":104.989,"mean_anomaly_deg":255.1429,"bstar":0.0014662,"rev_number":22172,"period_min":109.89259052414,"perigee_km":1220.4108824579,"apogee_km":1223.0419551735,"semimajor_km":7599.8634188157,"source":"CELESTRAK","updated_at":"2026-09-20T09:00:44.711743Z"}}}